| time (UTC) | temp C | wind direction | speed KPH | gust KPH | rain 1hr cm | rain 24hr cm | rain mn cm | humidity % | barometer mb |
| 20260507000049 | 18 | 134 | 0.0 | 0.0 | 0.00 | 0.48 | 0.48 | 22 | 1007.0 |
| 20260506234545 | 18 | 256 | 0.0 | 4.8 | 0.00 | 0.48 | 0.48 | 25 | 1006.8 |
| 20260506233055 | 18 | 8 | 0.0 | 0.0 | 0.00 | 0.48 | 0.48 | 25 | 1006.7 |
| 20260506231539 | 19 | 302 | 0.0 | 0.0 | 0.00 | 0.48 | 0.48 | 29 | 1006.7 |
| 20260506230031 | 19 | 318 | 0.0 | 4.8 | 0.00 | 0.48 | 0.48 | 33 | 1006.9 |
| 20260506224526 | 19 | 274 | 0.0 | 4.8 | 0.00 | 0.48 | 0.48 | 37 | 1006.6 |
| 20260506223021 | 20 | 278 | 1.6 | 4.8 | 0.00 | 0.48 | 0.48 | 39 | 1006.7 |
| 20260506221516 | 20 | 134 | 0.0 | 8.0 | 0.00 | 0.48 | 0.48 | 40 | 1006.5 |
| 20260506220021 | 20 | 40 | 0.0 | 4.8 | 0.00 | 0.48 | 0.48 | 37 | 1006.6 |
| 20260506214509 | 20 | 283 | 0.0 | 3.2 | 0.00 | 0.48 | 0.48 | 37 | 1006.5 |
| 20260506213003 | 20 | 313 | 1.6 | 8.0 | 0.00 | 0.48 | 0.48 | 36 | 1006.3 |
| 20260506211610 | 20 | 279 | 1.6 | 8.0 | 0.00 | 0.48 | 0.48 | 34 | 1006.2 |
| 20260506210055 | 19 | 149 | 0.0 | 4.8 | 0.00 | 0.48 | 0.48 | 31 | 1006.3 |
| 20260506204550 | 19 | 86 | 1.6 | 8.0 | 0.00 | 0.48 | 0.48 | 35 | 1006.3 |
| 20260506203045 | 20 | 278 | 1.6 | 9.7 | 0.00 | 0.48 | 0.48 | 33 | 1006.2 |
| 20260506201541 | 18 | 246 | 1.6 | 9.7 | 0.00 | 0.48 | 0.48 | 16 | 1006.0 |
| 20260506200042 | 18 | 99 | 0.0 | 4.8 | 0.00 | 0.48 | 0.48 | 6 | 1006.3 |
| 20260506194537 | 18 | 354 | 1.6 | 4.8 | 0.00 | 0.48 | 0.48 | 1 | 1006.4 |
| 20260506193029 | 17 | 37 | 1.6 | 6.4 | 0.00 | 0.48 | 0.48 | 1 | 1006.5 |
| 20260506191523 | 17 | 70 | 1.6 | 8.0 | 0.00 | 0.48 | 0.48 | 1 | 1006.6 |
| 20260506190019 | 17 | 297 | 3.2 | 8.0 | 0.00 | 0.48 | 0.48 | 1 | 1006.9 |
| 20260506184514 | 17 | 72 | 0.0 | 6.4 | 0.00 | 0.48 | 0.48 | 1 | 1007.0 |
| 20260506183009 | 17 | 153 | 1.6 | 9.7 | 0.00 | 0.48 | 0.48 | 1 | 1007.2 |
| 20260506181513 | 17 | 358 | 1.6 | 16.1 | 0.00 | 0.48 | 0.48 | 1 | 1007.3 |
| 20260506180016 | 17 | 229 | 1.6 | 6.4 | 0.00 | 0.48 | 0.48 | 1 | 1007.1 |
| 20260506174507 | 17 | 243 | 1.6 | 9.7 | 0.00 | 0.48 | 0.48 | 1 | 1007.2 |
| 20260506173001 | 17 | 294 | 0.0 | 9.7 | 0.00 | 0.48 | 0.48 | 1 | 1007.2 |
| 20260506171609 | 17 | 260 | 1.6 | 11.3 | 0.03 | 0.48 | 0.48 | 1 | 1007.5 |
| 20260506170100 | 17 | 207 | 3.2 | 12.9 | 0.05 | 0.48 | 0.48 | 1 | 1007.5 |
| 20260506164609 | 17 | 249 | 0.0 | 14.5 | 0.10 | 0.48 | 0.48 | 1 | 1007.5 |
| 20260506163145 | 17 | 269 | 1.6 | 8.0 | 0.18 | 0.48 | 0.48 | 1 | 1007.4 |
| 20260506161541 | 17 | 346 | 0.0 | 1.6 | 0.25 | 0.46 | 0.46 | 1 | 1007.5 |
| 20260506160039 | 16 | 278 | 0.0 | 3.2 | 0.30 | 0.43 | 0.43 | 1 | 1008.5 |
| 20260506154531 | 16 | 302 | 3.2 | 8.0 | 0.28 | 0.38 | 0.38 | 1 | 1008.8 |
| 20260506153029 | 16 | 294 | 0.0 | 3.2 | 0.25 | 0.30 | 0.30 | 1 | 1008.6 |
| 20260506151522 | 16 | 41 | 0.0 | 6.4 | 0.20 | 0.20 | 0.20 | 1 | 1008.6 |
| 20260506150018 | 16 | 32 | 0.0 | 3.2 | 0.13 | 0.13 | 0.13 | 1 | 1008.7 |
| 20260506144513 | 16 | 40 | 0.0 | 1.6 | 0.10 | 0.10 | 0.10 | 4 | 1008.5 |
| 20260506143007 | 17 | 297 | 0.0 | 3.2 | 0.05 | 0.05 | 0.05 | 40 | 1008.6 |
| 20260506141504 | 18 | 244 | 1.6 | 4.8 | 0.00 | 0.00 | 0.00 | 56 | 1008.7 |
| 20260506140005 | 18 | 219 | 1.6 | 8.0 | 0.00 | 0.00 | 0.00 | 60 | 1008.5 |
| 20260506134504 | 18 | 80 | 1.6 | 8.0 | 0.00 | 0.00 | 0.00 | 60 | 1008.3 |
| 20260506133003 | 18 | 86 | 1.6 | 12.9 | 0.00 | 0.00 | 0.00 | 60 | 1008.5 |
| 20260506131502 | 18 | 326 | 0.0 | 6.4 | 0.00 | 0.00 | 0.00 | 61 | 1008.5 |
| 20260506130000 | 18 | 250 | 0.0 | 8.0 | 0.00 | 0.00 | 0.00 | 62 | 1008.7 |
| 20260506124600 | 18 | 309 | 1.6 | 12.9 | 0.00 | 0.00 | 0.00 | 62 | 1008.7 |
| 20260506123100 | 18 | 346 | 0.0 | 9.7 | 0.00 | 0.00 | 0.00 | 61 | 1008.6 |
| 20260506121613 | 18 | 51 | 0.0 | 8.0 | 0.00 | 0.00 | 0.00 | 61 | 1008.4 |
| 20260506120119 | 18 | 283 | 0.0 | 8.0 | 0.00 | 0.00 | 0.00 | 61 | 1008.3 |
| 20260506114557 | 18 | 107 | 0.0 | 6.4 | 0.00 | 0.00 | 0.00 | 60 | 1008.2 |
| 20260506113104 | 18 | 274 | 0.0 | 6.4 | 0.00 | 0.00 | 0.00 | 60 | 1008.3 |
| 20260506111558 | 18 | 238 | 1.6 | 12.9 | 0.00 | 0.00 | 0.00 | 60 | 1008.2 |
| 20260506110057 | 18 | 319 | 0.0 | 4.8 | 0.00 | 0.00 | 0.00 | 60 | 1008.2 |
| 20260506104555 | 17 | 274 | 0.0 | 6.4 | 0.00 | 0.00 | 0.00 | 60 | 1008.2 |
| 20260506103054 | 18 | 40 | 0.0 | 8.0 | 0.00 | 0.00 | 0.00 | 61 | 1008.0 |
| 20260506101554 | 18 | 139 | 0.0 | 4.8 | 0.00 | 0.00 | 0.00 | 62 | 1007.9 |
| 20260506100050 | 18 | 301 | 0.0 | 8.0 | 0.00 | 0.00 | 0.00 | 62 | 1008.0 |
| 20260506094551 | 18 | 315 | 1.6 | 6.4 | 0.00 | 0.00 | 0.00 | 62 | 1008.0 |
| 20260506093051 | 18 | 295 | 0.0 | 4.8 | 0.00 | 0.00 | 0.00 | 63 | 1007.9 |
| 20260506091549 | 18 | 33 | 0.0 | 3.2 | 0.00 | 0.00 | 0.00 | 63 | 1007.9 |
| 20260506090048 | 18 | 311 | 0.0 | 12.9 | 0.00 | 0.00 | 0.00 | 63 | 1008.0 |
| 20260506084547 | 18 | 330 | 0.0 | 6.4 | 0.00 | 0.00 | 0.00 | 63 | 1008.0 |
| 20260506083047 | 18 | 288 | 1.6 | 12.9 | 0.00 | 0.00 | 0.00 | 63 | 1008.0 |
| 20260506081550 | 18 | 122 | 0.0 | 8.0 | 0.00 | 0.00 | 0.00 | 63 | 1008.0 |
| 20260506073043 | 18 | 215 | 0.0 | 6.4 | 0.00 | 0.00 | 0.00 | 64 | 1008.4 |
| 20260506071549 | 18 | 226 | 0.0 | 11.3 | 0.00 | 0.00 | 0.00 | 64 | 1008.4 |
| 20260506061538 | 18 | 326 | 0.0 | 1.6 | 0.00 | 0.00 | 0.00 | 65 | 1008.8 |
| 20260506044535 | 18 | 82 | 0.0 | 4.8 | 0.00 | 0.00 | 0.00 | 65 | 1009.4 |
| 20260506043023 | 18 | 51 | 0.0 | 4.8 | 0.00 | 0.00 | 0.00 | 65 | 1009.4 |
| 20260506041524 | 18 | 24 | 0.0 | 6.4 | 0.00 | 0.00 | 0.00 | 65 | 1009.4 |
| 20260506040019 | 18 | 58 | 0.0 | 6.4 | 0.00 | 0.00 | 0.00 | 65 | 1009.3 |
| 20260506034519 | 18 | 339 | 0.0 | 4.8 | 0.00 | 0.00 | 0.00 | 65 | 1009.3 |
| 20260506033017 | 19 | 210 | 0.0 | 1.6 | 0.00 | 0.00 | 0.00 | 63 | 1009.1 |
| 20260506031518 | 20 | 100 | 0.0 | 4.8 | 0.00 | 0.00 | 0.00 | 62 | 1009.1 |
| 20260506030021 | 20 | 145 | 0.0 | 6.4 | 0.00 | 0.00 | 0.00 | 61 | 1009.1 |
| 20260506024515 | 20 | 148 | 0.0 | 3.2 | 0.00 | 0.00 | 0.00 | 60 | 1009.0 |
| 20260506023015 | 20 | 320 | 0.0 | 1.6 | 0.00 | 0.00 | 0.00 | 58 | 1009.1 |
| 20260506021514 | 21 | 150 | 0.0 | 1.6 | 0.00 | 0.00 | 0.00 | 57 | 1009.1 |
| 20260506020013 | 21 | 297 | 0.0 | 3.2 | 0.00 | 0.00 | 0.00 | 56 | 1009.1 |
| 20260506014512 | 21 | 355 | 0.0 | 1.6 | 0.00 | 0.00 | 0.00 | 54 | 1009.0 |
| 20260506013012 | 22 | 297 | 0.0 | 6.4 | 0.00 | 0.00 | 0.00 | 53 | 1008.8 |
| 20260506011511 | 22 | 260 | 0.0 | 4.8 | 0.00 | 0.00 | 0.00 | 50 | 1008.6 |
| 20260506010011 | 22 | 103 | 0.0 | 4.8 | 0.00 | 0.00 | 0.00 | 50 | 1008.5 |
| 20260506004510 | 22 | 76 | 0.0 | 4.8 | 0.00 | 0.00 | 0.00 | 49 | 1008.4 |
| 20260506003009 | 23 | 139 | 0.0 | 6.4 | 0.00 | 0.00 | 0.00 | 47 | 1008.2 |
| 20260506001509 | 23 | 335 | 0.0 | 0.0 | 0.00 | 0.00 | 0.00 | 46 | 1008.0 |